TimeEDT,TemperatureF,Dew PointF,Humidity,Sea Level PressureIn,VisibilityMPH,Wind Direction,Wind SpeedMPH,Gust SpeedMPH,PrecipitationIn,Events,Conditions,WindDirDegrees,DateUTC
12:52 AM,66.0,64.0,93,30.04,7.0,East,3.5,-,0.00,,Overcast,100,2013-05-18 04:52:00
1:52 AM,66.0,63.0,90,30.02,7.0,ESE,6.9,-,N/A,,Overcast,110,2013-05-18 05:52:00
2:52 AM,66.0,63.0,90,30.01,7.0,East,4.6,-,N/A,,Overcast,100,2013-05-18 06:52:00
3:52 AM,64.9,64.0,97,30.02,7.0,ENE,3.5,-,N/A,,Overcast,70,2013-05-18 07:52:00
4:52 AM,64.9,64.0,97,30.03,6.0,Calm,Calm,-,N/A,,Overcast,0,2013-05-18 08:52:00
5:52 AM,64.0,64.0,100,30.03,5.0,Calm,Calm,-,0.01,Rain,Light Rain,0,2013-05-18 09:52:00
6:52 AM,64.9,64.0,97,30.04,5.0,Calm,Calm,-,0.05,Rain,Light Rain,0,2013-05-18 10:52:00
7:52 AM,66.0,64.9,96,30.04,5.0,NNE,4.6,-,0.01,,Overcast,30,2013-05-18 11:52:00
8:27 AM,64.4,64.4,100,30.07,2.5,East,5.8,-,N/A,,Overcast,90,2013-05-18 12:27:00
8:52 AM,66.0,64.9,96,30.06,2.5,East,6.9,-,N/A,,Overcast,80,2013-05-18 12:52:00
9:52 AM,66.9,64.9,93,30.05,4.0,ENE,6.9,-,0.00,,Overcast,60,2013-05-18 13:52:00
10:52 AM,66.9,64.9,93,30.05,6.0,NE,5.8,-,N/A,,Overcast,50,2013-05-18 14:52:00
11:52 AM,71.1,66.9,87,30.04,6.0,East,4.6,-,N/A,,Overcast,90,2013-05-18 15:52:00
12:52 PM,73.0,66.0,79,30.02,8.0,East,8.1,-,N/A,,Mostly Cloudy,80,2013-05-18 16:52:00
1:52 PM,75.9,64.9,69,30.01,10.0,ESE,5.8,-,N/A,,Mostly Cloudy,110,2013-05-18 17:52:00
2:52 PM,78.1,64.9,64,29.99,10.0,Variable,3.5,-,N/A,,Mostly Cloudy,0,2013-05-18 18:52:00
3:52 PM,75.9,66.0,71,29.98,9.0,East,11.5,-,N/A,,Mostly Cloudy,80,2013-05-18 19:52:00
4:52 PM,75.0,62.1,64,29.96,10.0,ESE,6.9,-,N/A,,Mostly Cloudy,120,2013-05-18 20:52:00
5:52 PM,73.9,64.0,71,29.97,10.0,East,5.8,-,N/A,,Mostly Cloudy,90,2013-05-18 21:52:00
6:52 PM,75.0,64.0,69,29.96,10.0,Calm,Calm,-,N/A,,Mostly Cloudy,0,2013-05-18 22:52:00
7:52 PM,71.1,64.9,81,29.98,10.0,SE,10.4,-,N/A,,Mostly Cloudy,140,2013-05-18 23:52:00
8:52 PM,70.0,64.9,84,29.97,10.0,ESE,4.6,-,N/A,,Mostly Cloudy,120,2013-05-19 00:52:00
9:52 PM,66.9,64.9,93,29.98,10.0,Calm,Calm,-,N/A,,Mostly Cloudy,0,2013-05-19 01:52:00
10:52 PM,66.9,64.9,93,29.99,10.0,SE,3.5,-,N/A,,Mostly Cloudy,140,2013-05-19 02:52:00
11:52 PM,66.9,64.9,93,29.98,10.0,ESE,4.6,-,N/A,,Mostly Cloudy,120,2013-05-19 03:52:00